Rifle, CO

1:33 PM MST on February 25, 2018 (GMT -0700)
Garfield County Regional

Weather History for KRIL - March, 2014

Change the Weather History Date:

Monday, March 31, 2014

  Actual Average Record
Temperature  
Mean Temperature 43 °F 44 °F  
Max Temperature 51 °F 58 °F 79 °F (2012)
Min Temperature 34 °F 29 °F 9 °F (1924)
Degree Days  
Heating Degree Days 22 21  
Month to date heating degree days 725 787  
Since 1 July heating degree days 5936 5784  
Cooling Degree Days 0 0  
Month to date cooling degree days 0 0  
Year to date cooling degree days 0 0  
Moisture  
Dew Point 20 °F    
Average Humidity 41    
Maximum Humidity 64    
Minimum Humidity 18    
Precipitation  
Precipitation T in 0.05 in 0.36 in (2008)
Month to date precipitation 0.78 1.20  
Year to date precipitation 2.18 2.77  
Sea Level Pressure  
Sea Level Pressure 29.91 in    
Wind  
Wind Speed 8 mph (West)    
Max Wind Speed 21 mph    
Max Gust Speed 29 mph    
Visibility 10 miles    
Events Snow    
T = Trace of Precipitation, MM = Missing Value Source: NWS Daily Summary

Daily Weather History Graph

Daily Weather History Graph

Search for Another Location

Airport or City:

Trip Planner

Search our weather history database for the weather conditions in past years. The results will help you decide how hot, cold, wet, or windy it might be!

Date:

Astronomy

Mar. 31, 2014 Rise Set
Actual Time 6:56 AM MDT 7:33 PM MDT
Civil Twilight 6:29 AM MDT 8:01 PM MDT
Nautical Twilight 5:57 AM MDT 8:33 PM MDT
Astronomical Twilight 5:24 AM MDT 9:06 PM MDT
Moon 7:22 AM MDT (3/31) 8:55 PM MDT (3/31)
Length of Visible Light 13h 31m
Length of Day
12h 37m
New Moon, 1% of the Moon is Illuminated
Mar 31
New Moon
Apr 7
First Quarter
Apr 15
Full
Apr 22
Last Quarter
Apr 29
New

Hourly Weather History & Observations

Time (MDT) Temp. Windchill Dew Point Humidity Pressure Visibility Wind Dir Wind Speed Gust Speed Precip Events Conditions
12:53 AM 39.0 °F 31.4 °F 28.0 °F 65% 29.80 in 10.0 mi WNW 12.7 mph - 0.00 in   Overcast
1:53 AM 39.0 °F 31.4 °F 27.0 °F 62% 29.82 in 10.0 mi West 12.7 mph - N/A   Mostly Cloudy
2:53 AM 37.0 °F 28.5 °F 27.0 °F 67% 29.85 in 10.0 mi NNW 13.8 mph 26.5 mph 0.00 in Snow Light Snow
3:53 AM 36.0 °F 27.5 °F 26.1 °F 67% 29.87 in 10.0 mi NNW 12.7 mph 20.7 mph 0.00 in   Overcast
4:53 AM 37.0 °F 34.5 °F 23.0 °F 57% 29.91 in 10.0 mi Variable 3.5 mph - N/A   Overcast
5:53 AM 36.0 °F 28.0 °F 21.9 °F 57% 29.97 in 10.0 mi WNW 11.5 mph - N/A   Overcast
6:53 AM 34.0 °F 28.8 °F 23.0 °F 64% 30.02 in 10.0 mi SW 5.8 mph - N/A   Overcast
7:53 AM 35.1 °F 29.3 °F 23.0 °F 61% 30.04 in 10.0 mi West 6.9 mph - N/A   Overcast
8:53 AM 36.0 °F - 23.0 °F 59% 30.03 in 10.0 mi Calm Calm - N/A   Partly Cloudy
9:53 AM 39.0 °F 34.8 °F 21.0 °F 49% 30.05 in 10.0 mi West 5.8 mph - N/A   Clear
10:53 AM 42.1 °F 35.7 °F 21.9 °F 45% 30.03 in 10.0 mi West 11.5 mph - N/A   Clear
11:53 AM 44.1 °F 42.5 °F 19.0 °F 37% 30.01 in 10.0 mi Variable 3.5 mph - N/A   Clear
12:53 PM 45.0 °F 42.6 °F 17.1 °F 33% 29.99 in 10.0 mi Variable 4.6 mph - N/A   Clear
1:53 PM 46.9 °F - 16.0 °F 29% 29.95 in 10.0 mi West 6.9 mph - N/A   Clear
2:53 PM 50.0 °F - 12.9 °F 23% 29.91 in 10.0 mi West 13.8 mph 28.8 mph N/A   Clear
3:53 PM 50.0 °F - 9.0 °F 19% 29.90 in 10.0 mi West 16.1 mph 24.2 mph N/A   Clear
4:53 PM 50.0 °F - 12.0 °F 22% 29.87 in 10.0 mi West 15.0 mph - N/A   Clear
5:53 PM 50.0 °F - 14.0 °F 24% 29.86 in 10.0 mi West 11.5 mph - N/A   Clear
6:53 PM 48.0 °F - 15.1 °F 27% 29.87 in 10.0 mi West 8.1 mph - N/A   Overcast
7:53 PM 48.0 °F - 12.9 °F 24% 29.86 in 10.0 mi South 3.5 mph - N/A   Overcast
8:53 PM 44.1 °F 39.0 °F 21.0 °F 40% 29.86 in 10.0 mi SSE 9.2 mph - N/A   Mostly Cloudy
9:53 PM 43.0 °F 38.8 °F 21.9 °F 43% 29.84 in 10.0 mi SE 6.9 mph - N/A   Overcast
10:53 PM 44.1 °F 42.5 °F 19.9 °F 38% 29.80 in 10.0 mi ENE 3.5 mph - N/A   Overcast
11:53 PM 41.0 °F - 21.9 °F 47% 29.78 in 10.0 mi Calm Calm - N/A   Mostly Cloudy